Location: Newark
(31.5350°N, 35.0986°E)
Time: 23:40:41
(UTC+00:00)

Vanguard 1 - Pass Details

Date: 28 September 2019
Orbit: 653 x 3830 km, 34.3° (Epoch: 14 October)

Event Time Altitude Azimuth Distance (km) Brightness Sun altitude
Rises 00:29:06 0° 272° (W) 7,637 - -38.5°
Reaches altitude 10° 00:34:02 10° 273° (W) 6,793 - -37.6°
Exits shadow 00:46:37 42° 280° (W) 4,755 13.0 -35.1°
Maximum altitude 00:58:11 83° 3° (N) 3,579 12.7 -32.8°
Drops below altitude 10° 01:15:57 10° 93° (E) 5,272 14.6 -29.3°
Sets 01:19:13 0° 94° (E) 5,945 15.1 -28.6°
